[TLELIST] Archives

 

[list_settings.list_name] Current TLEs

August 31st 2013 PDT

HST 1 20580U 90037B 13242.78950072 .00001678 00000-0 10674-3 0 3216 2 20580 028.4696 143.6773 0003309 065.5697 351.3990 15.03883261 80933 ISS (ZARYA) 1 25544U 98067A 13243.33241898 .00007463 00000-0 13575-3 0 4978 2 25544 051.6474 095.9778 0004586 017.4049 321.9116 15.50600163846358 CXO 1 25867U 99040B 13244.62236040 .00000377 00000-0 00000+0 0 9432 2 25867 075.8618 335.1703 8480420 276.8526 000.7631 00.37797952 10826 ____________________________________________________________________ These 2-Line ...Continue Reading

[list_settings.list_name] Current TLEs

August 30th 2013 PDT

HST 1 20580U 90037B 13241.78355964 .00001253 00000-0 76622-4 0 3208 2 20580 028.4694 150.2844 0003331 057.5160 302.5634 15.03879000 80787 ISS (ZARYA) 1 25544U 98067A 13242.44312863 .00008309 00000-0 15018-3 0 4918 2 25544 051.6498 100.3779 0004557 015.4826 036.4043 15.50607631846225 CXO 1 25867U 99040B 13244.62236040 .00000377 00000-0 00000+0 0 9432 2 25867 075.8618 335.1703 8480420 276.8526 000.7631 00.37797952 10826 ____________________________________________________________________ These 2-Line ...Continue Reading

[list_settings.list_name] Current TLEs

August 29th 2013 PDT

HST 1 20580U 90037B 13241.51811491 .00002058 00000-0 14557-3 0 31 2 20580 028.4697 152.0269 0003462 053.2785 306.8581 15.03879640 80746 ISS (ZARYA) 1 25544U 98067A 13241.39990741 .00008176 00000-0 14800-3 0 4851 2 25544 051.6499 105.5504 0004476 012.3451 332.2743 15.50589082846053 CXO 1 25867U 99040B 13241.97833494 .00000214 00000-0 00000+0 0 9422 2 25867 075.8395 335.3246 8483978 276.8834 000.7857 00.37800123 10819 ____________________________________________________________________ These 2-Line ...Continue Reading

[list_settings.list_name] Current TLEs

August 28th 2013 PDT

HST 1 20580U 90037B 13240.25719010 .00001930 00000-0 12464-3 0 3165 2 20580 028.4697 160.2968 0003067 043.6945 316.3847 15.03876386 80559 ISS (ZARYA) 1 25544U 98067A 13240.19488816 .00008117 00000-0 14712-3 0 4760 2 25544 051.6503 111.5234 0004369 007.2780 086.3745 15.50567168845874 CXO 1 25867U 99040B 13241.97833494 .00000214 00000-0 00000+0 0 9422 2 25867 075.8395 335.3246 8483978 276.8834 000.7857 00.37800123 10819 ____________________________________________________________________ These 2-Line ...Continue Reading

[list_settings.list_name] Current TLEs

August 27th 2013 PDT

HST 1 20580U 90037B 13238.15893182 .00001724 00000-0 11002-3 0 3128 2 20580 028.4695 174.0440 0003321 019.5514 118.2817 15.03869509 80243 ISS (ZARYA) 1 25544U 98067A 13239.29482763 .00009792 00000-0 17586-3 0 4711 2 25544 051.6501 115.9853 0004112 001.6457 104.5543 15.50557845845737 CXO 1 25867U 99040B 13239.33436284 -.00000003 00000-0 00000+0 0 9411 2 25867 075.8241 335.4862 8485978 276.9078 000.8142 00.37801001 10800 ____________________________________________________________________ These 2-Line ...Continue Reading

[list_settings.list_name] Current TLEs

August 26th 2013 PDT

HST 1 20580U 90037B 13238.15893182 .00001724 00000-0 11002-3 0 3128 2 20580 028.4695 174.0440 0003321 019.5514 118.2817 15.03869509 80243 ISS (ZARYA) 1 25544U 98067A 13238.26244449 .00012392 00000-0 22048-3 0 4634 2 25544 051.6509 121.1029 0004392 359.4364 100.2420 15.50545979845574 CXO 1 25867U 99040B 13239.33436284 -.00000003 00000-0 00000+0 0 9411 2 25867 075.8241 335.4862 8485978 276.9078 000.8142 00.37801001 10800 ____________________________________________________________________ These 2-Line ...Continue Reading

[list_settings.list_name] Current TLEs

August 25th 2013 PDT

HST 1 20580U 90037B 13237.09286759 .00001778 00000-0 11388-3 0 3111 2 20580 028.4695 181.0348 0003294 008.7404 106.1180 15.03866319 80082 ISS (ZARYA) 1 25544U 98067A 13237.23033722 .00014367 00000-0 25447-3 0 4562 2 25544 051.6507 126.2190 0004238 355.4583 099.2974 15.50527025845411 CXO 1 25867U 99040B 13239.33436284 -.00000003 00000-0 00000+0 0 9411 2 25867 075.8241 335.4862 8485978 276.9078 000.8142 00.37801001 10800 ____________________________________________________________________ These 2-Line ...Continue Reading

[list_settings.list_name] Current TLEs

August 24th 2013 PDT

HST 1 20580U 90037B 13235.30170859 .00001848 00000-0 11889-3 0 3109 2 20580 028.4694 192.7801 0003178 350.0413 128.5349 15.03858886 79812 ISS (ZARYA) 1 25544U 98067A 13236.32973502 .00013868 00000-0 24617-3 0 4529 2 25544 051.6506 130.6827 0004191 354.6503 109.7594 15.50499084845279 CXO 1 25867U 99040B 13236.69051995 -.00000125 00000-0 00000+0 0 9403 2 25867 075.8215 335.6121 8488586 276.9490 000.8613 00.37801565 10793 ____________________________________________________________________ These 2-Line ...Continue Reading

[list_settings.list_name] Current TLEs

August 23rd 2013 PDT

HST 1 20580U 90037B 13234.17347571 .00001704 00000-0 10865-3 0 3092 2 20580 028.4694 200.1786 0003153 338.6351 139.7764 15.03854450 79643 ISS (ZARYA) 1 25544U 98067A 13235.36340709 .00011770 00000-0 21043-3 0 4462 2 25544 051.6493 135.4719 0004041 350.1258 116.9094 15.50463783845125 CXO 1 25867U 99040B 13236.69051995 -.00000125 00000-0 00000+0 0 9403 2 25867 075.8215 335.6121 8488586 276.9490 000.8613 00.37801565 10793 ____________________________________________________________________ These 2-Line ...Continue Reading

[list_settings.list_name] Current TLEs

August 22nd 2013 PDT

HST 1 20580U 90037B 13234.17347571 .00001704 00000-0 10865-3 0 3092 2 20580 028.4694 200.1786 0003153 338.6351 139.7764 15.03854450 79643 ISS (ZARYA) 1 25544U 98067A 13234.43815972 .00009819 00000-0 17709-3 0 4395 2 25544 051.6496 140.0590 0003906 344.5133 354.7019 15.50433071844973 CXO 1 25867U 99040B 13236.69051995 -.00000125 00000-0 00000+0 0 9403 2 25867 075.8215 335.6121 8488586 276.9490 000.8613 00.37801565 10793 ____________________________________________________________________ These 2-Line ...Continue Reading
  • This mailing list is a public mailing list - anyone may join or leave, at any time.
  • This mailing list is announce-only.

International Space Station (ISS) / Hubble Space Telescope (HST) / Chandra X-Ray Observatory Orbital Data via EMAIL

Privacy Policy:

Private list